FLOCK 2K-33

Last updated on Wed Feb 14 2018 16:20:53 GMT+0000 (Coordinated Universal Time)

1 42879U 17042BG 18044.90675577 .00005152 00000-0 15078-3 0 9994 2 42879 96.9930 307.7756 0012286 179.4628 180.6632 15.35583390 32710

Satellite not in orbit

FLOCK 2K-33